Weather History for Smyrna, TN

Change the Weather History Date:

Friday, September 6, 2013

  Actual Average Record
Temperature  
Mean Temperature 75 °F -  
Max Temperature 90 °F 83 °F 96 °F (1998)
Min Temperature 60 °F 64 °F 48 °F (2010)
Cooling Degree Days 10    
Growing Degree Days 25 (Base 50)    
Moisture  
Dew Point 63 °F    
Average Humidity 91    
Maximum Humidity 100    
Minimum Humidity 39    
Precipitation  
Precipitation 0.00 in - - ()
Sea Level Pressure  
Sea Level Pressure 30.16 in    
Wind  
Wind Speed 1 mph (NE)    
Max Wind Speed 17 mph    
Max Gust Speed 21 mph    
Visibility 4 miles    
Events Fog    
Averages and records for this station are not official NWS values.
T = Trace of Precipitation, MM = Missing Value Source: NWS Daily Summary

Daily Weather History Graph

Daily Weather History Graph

Search for Another Location

Airport:

Trip Planner

Search our weather history database for the weather conditions in past years. The results will help you decide how hot, cold, wet, or windy it might be!

Date:

Astronomy

Sep. 06, 2013 Rise Set
Actual Time 6:21 AM CDT 7:06 PM CDT
Civil Twilight 5:55 AM CDT 7:32 PM CDT
Nautical Twilight 5:25 AM CDT 8:02 PM CDT
Astronomical Twilight 4:53 AM CDT 8:34 PM CDT
Moon 7:29 AM CDT (9/6) 7:35 PM CDT (9/6)
Length of Visible Light 13h 36m
Length of Day
12h 44m
New Moon, 2% of the Moon is Illuminated
Sep 6
New Moon
Sep 12
First Quarter
Sep 19
Full
Sep 26
Last Quarter
Oct 4
New

Hourly Weather History & Observations

Time (CDT) Temp. Heat Index Dew Point Humidity Pressure Visibility Wind Dir Wind Speed Gust Speed Precip Events Conditions
12:35 AM 64.4 °F - 64.4 °F 100% 30.18 in 1.5 mi Calm Calm - N/A   Clear
12:38 AM 64.4 °F - 64.4 °F 100% 30.17 in 1.0 mi Calm Calm - N/A   Clear
12:46 AM 64.4 °F - 64.4 °F 100% 30.17 in 1.5 mi Calm Calm - N/A   Clear
12:49 AM 64.4 °F - 64.4 °F 100% 30.17 in 3.0 mi Calm Calm - N/A   Clear
12:56 AM 63.9 °F - 63.9 °F 100% 30.19 in 2.5 mi Calm Calm - N/A   Clear
12:58 AM 64.4 °F - 64.4 °F 100% 30.17 in 0.8 mi Calm Calm - N/A   Clear
1:06 AM 64.4 °F - 64.4 °F 100% 30.17 in 0.5 mi Calm Calm - N/A Fog Fog
1:10 AM 64.4 °F - 64.4 °F 100% 30.17 in 1.0 mi Calm Calm - N/A   Clear
1:14 AM 64.4 °F - 64.4 °F 100% 30.17 in 1.8 mi Calm Calm - N/A   Clear
1:16 AM 64.4 °F - 64.4 °F 100% 30.17 in 4.0 mi Calm Calm - N/A   Clear
1:27 AM 62.6 °F - 62.6 °F 100% 30.17 in 1.8 mi Calm Calm - N/A   Clear
1:29 AM 62.6 °F - 62.6 °F 100% 30.17 in 1.0 mi Calm Calm - N/A   Clear
1:38 AM 64.4 °F - 64.4 °F 100% 30.17 in 1.8 mi Calm Calm - N/A   Clear
1:40 AM 64.4 °F - 64.4 °F 100% 30.17 in 4.0 mi Calm Calm - N/A   Clear
1:56 AM 63.0 °F - 63.0 °F 100% 30.18 in 0.5 mi Calm Calm - N/A Fog Fog
2:04 AM 64.4 °F - 64.4 °F 100% 30.16 in 0.2 mi Calm Calm - N/A Fog Fog
2:20 AM 64.4 °F - 64.4 °F 100% 30.17 in 0.8 mi Calm Calm - N/A   Clear
2:42 AM 62.6 °F - 62.6 °F 100% 30.16 in 0.2 mi Calm Calm - N/A Fog Fog
2:56 AM 63.0 °F - 63.0 °F 100% 30.18 in 0.5 mi Calm Calm - N/A Fog Fog
2:59 AM 62.6 °F - 62.6 °F 100% 30.16 in 1.0 mi Calm Calm - N/A   Clear
3:09 AM 62.6 °F - 62.6 °F 100% 30.16 in 0.5 mi Calm Calm - N/A Fog Fog
3:24 AM 62.6 °F - 62.6 °F 100% 30.16 in 1.0 mi Calm Calm - N/A   Clear
3:26 AM 62.6 °F - 62.6 °F 100% 30.16 in 2.0 mi Calm Calm - N/A   Clear
3:33 AM 62.6 °F - 62.6 °F 100% 30.16 in 8.0 mi Calm Calm - N/A   Clear
3:44 AM 62.6 °F - 62.6 °F 100% 30.16 in 1.5 mi Calm Calm - N/A   Clear
3:46 AM 62.6 °F - 62.6 °F 100% 30.16 in 0.8 mi Calm Calm - N/A   Clear
3:56 AM 61.9 °F - 61.9 °F 100% 30.17 in 0.5 mi Calm Calm - N/A Fog Fog
4:02 AM 62.6 °F - 62.6 °F 100% 30.16 in 1.0 mi Calm Calm - N/A   Clear
4:04 AM 62.6 °F - 62.6 °F 100% 30.16 in 1.8 mi Calm Calm - N/A   Clear
4:15 AM 62.6 °F - 62.6 °F 100% 30.16 in 1.0 mi Calm Calm - N/A   Clear
4:18 AM 60.8 °F - 60.8 °F 100% 30.16 in 0.5 mi Calm Calm - N/A Fog Fog
4:27 AM 60.8 °F - 60.8 °F 100% 30.16 in 0.2 mi Calm Calm - N/A Fog Fog
4:39 AM 62.6 °F - 62.6 °F 100% 30.16 in 0.5 mi Calm Calm - N/A Fog Fog
4:56 AM 61.0 °F - 61.0 °F 100% 30.18 in 0.5 mi Calm Calm - N/A Fog Fog
5:02 AM 60.8 °F - 60.8 °F 100% 30.16 in 1.0 mi Calm Calm - N/A   Clear
5:09 AM 60.8 °F - 60.8 °F 100% 30.16 in 1.5 mi Calm Calm - N/A   Clear
5:26 AM 62.6 °F - 62.6 °F 100% 30.16 in 3.0 mi Calm Calm - N/A   Clear
5:35 AM 60.8 °F - 60.8 °F 100% 30.16 in 1.5 mi Calm Calm - N/A   Clear
5:42 AM 60.8 °F - 60.8 °F 100% 30.17 in 1.2 mi Calm Calm - N/A   Clear
5:44 AM 60.8 °F - 60.8 °F 100% 30.17 in 2.0 mi Calm Calm - N/A   Clear
5:56 AM 61.0 °F - 61.0 °F 100% 30.19 in 10.0 mi Calm Calm - N/A   Clear
6:25 AM 60.8 °F - 60.8 °F 100% 30.17 in 1.5 mi Calm Calm - N/A   Mostly Cloudy
6:27 AM 60.8 °F - 60.8 °F 100% 30.17 in 0.8 mi Calm Calm - N/A   Mist
6:29 AM 60.8 °F - 60.8 °F 100% 30.17 in 0.2 mi Calm Calm - N/A Fog Fog
6:38 AM 62.6 °F - 62.6 °F 100% 30.17 in 0.2 mi Calm Calm - N/A Fog Fog
6:48 AM 60.8 °F - 60.8 °F 100% 30.17 in 0.5 mi Calm Calm - N/A Fog Fog
6:56 AM 61.9 °F - 61.9 °F 100% 30.19 in 0.5 mi Calm Calm - N/A Fog Fog
7:09 AM 62.6 °F - 62.6 °F 100% 30.18 in 1.0 mi Calm Calm - N/A   Clear
7:14 AM 62.6 °F - 62.6 °F 100% 30.18 in 7.0 mi Calm Calm - N/A   Clear
7:56 AM 65.8 °F - 65.8 °F 100% 30.20 in 10.0 mi Calm Calm - N/A   Clear
8:56 AM 72.9 °F - 66.9 °F 82% 30.20 in 10.0 mi Calm Calm - N/A   Clear
9:56 AM 77.9 °F - 66.9 °F 69% 30.21 in 10.0 mi East 3.5 mph - N/A   Clear
10:56 AM 81.9 °F 84.2 °F 66.9 °F 60% 30.20 in 10.0 mi South 5.8 mph - N/A   Clear
11:56 AM 83.8 °F 86.0 °F 65.8 °F 55% 30.19 in 10.0 mi Variable 5.8 mph - N/A   Clear
12:56 PM 88.0 °F 88.1 °F 61.9 °F 41% 30.18 in 10.0 mi Variable 5.8 mph - N/A   Clear
1:56 PM 90.0 °F 90.6 °F 63.0 °F 40% 30.15 in 10.0 mi East 6.9 mph - N/A   Clear
2:56 PM 90.9 °F 91.6 °F 63.0 °F 39% 30.12 in 10.0 mi Calm Calm - N/A   Clear
3:56 PM 90.0 °F 91.7 °F 64.9 °F 43% 30.11 in 10.0 mi North 17.3 mph 20.7 mph N/A   Clear
4:56 PM 88.9 °F 90.7 °F 64.9 °F 45% 30.10 in 10.0 mi North 8.1 mph - N/A   Clear
5:56 PM 88.0 °F 89.6 °F 64.9 °F 46% 30.10 in 10.0 mi NNE 6.9 mph - N/A   Clear
6:56 PM 82.9 °F 85.4 °F 66.9 °F 58% 30.10 in 10.0 mi North 5.8 mph - N/A   Clear
7:56 PM 79.9 °F - 65.8 °F 62% 30.10 in 10.0 mi NE 4.6 mph - N/A   Clear
8:56 PM 73.9 °F - 65.8 °F 76% 30.11 in 10.0 mi Calm Calm - N/A   Clear
9:56 PM 70.9 °F - 66.9 °F 87% 30.13 in 10.0 mi Calm Calm - N/A   Clear
10:56 PM 68.9 °F - 66.9 °F 93% 30.12 in 10.0 mi Calm Calm - N/A   Clear
11:56 PM 68.0 °F - 66.9 °F 96% 30.12 in 10.0 mi Calm Calm - N/A   Clear